Time,TemperatureF,DewpointF,PressureIn,WindDirection,WindDirectionDegrees,WindSpeedMPH,WindSpeedGustMPH,Humidity,HourlyPrecipIn,Conditions,Clouds,dailyrainin,SoftwareType,DateUTC
2013-04-29 09:12:00,54.2,51.6,30.01,East,98,0.0,0.0,91,0.00,,,0.04,Wunderground v.1.15,2013-04-29 13:12:00,
2013-04-29 09:42:00,55.1,51.0,30.01,SSW,201,1.0,2.0,86,0.00,,,0.04,Wunderground v.1.15,2013-04-29 13:42:00,
2013-04-29 10:12:00,55.4,50.6,30.01,ESE,109,1.0,1.0,84,0.00,,,0.04,Wunderground v.1.15,2013-04-29 14:12:00,
2013-04-29 10:42:00,55.8,51.0,30.01,West,277,2.0,4.0,84,0.00,,,0.04,Wunderground v.1.15,2013-04-29 14:42:00,
2013-04-29 11:12:00,56.1,50.7,30.01,SSE,159,1.0,1.0,82,0.00,,,0.04,Wunderground v.1.15,2013-04-29 15:12:00,
2013-04-29 11:42:00,56.5,51.1,30.00,West,261,1.0,5.0,82,0.00,,,0.04,Wunderground v.1.15,2013-04-29 15:42:00,
2013-04-29 12:12:00,56.5,50.7,30.00,NE,41,1.0,1.0,81,0.00,,,0.04,Wunderground v.1.15,2013-04-29 16:12:00,
2013-04-29 12:42:00,56.3,50.5,30.00,SE,138,1.0,1.0,81,0.00,,,0.04,Wunderground v.1.15,2013-04-29 16:42:00,
2013-04-29 13:12:00,56.5,49.7,29.99,SSE,152,1.0,1.0,78,0.00,,,0.04,Wunderground v.1.15,2013-04-29 17:12:00,
2013-04-29 13:42:00,56.9,50.5,29.99,ESE,119,0.0,0.0,79,0.00,,,0.04,Wunderground v.1.15,2013-04-29 17:42:00,
2013-04-29 14:12:00,56.9,50.8,29.99,SE,141,1.0,1.0,80,0.00,,,0.04,Wunderground v.1.15,2013-04-29 18:12:00,
2013-04-29 14:42:00,56.7,51.6,29.99,SE,142,2.0,2.0,83,0.00,,,0.04,Wunderground v.1.15,2013-04-29 18:42:00,
2013-04-29 15:12:00,56.6,51.2,29.98,NW,309,2.0,3.0,82,0.00,,,0.04,Wunderground v.1.15,2013-04-29 19:12:00,
2013-04-29 15:42:00,56.7,51.6,29.98,East,101,1.0,1.0,83,0.00,,,0.04,Wunderground v.1.15,2013-04-29 19:42:00,
2013-04-29 16:12:00,56.4,51.6,29.98,East,101,1.0,1.0,84,0.00,,,0.04,Wunderground v.1.15,2013-04-29 20:12:00,
2013-04-29 16:42:00,55.8,50.7,29.97,ENE,76,1.0,2.0,83,0.00,,,0.04,Wunderground v.1.15,2013-04-29 20:42:00,
2013-04-29 17:12:00,56.8,51.4,29.97,NE,45,0.0,0.0,82,0.00,,,0.04,Wunderground v.1.15,2013-04-29 21:12:00,
2013-04-29 17:42:00,56.7,50.9,29.97,East,87,1.0,1.0,81,0.00,,,0.04,Wunderground v.1.15,2013-04-29 21:42:00,
2013-04-29 18:12:00,56.9,50.5,29.97,ESE,103,0.0,0.0,79,0.00,,,0.04,Wunderground v.1.15,2013-04-29 22:12:00,
2013-04-29 18:42:00,57.3,50.5,29.97,East,93,0.0,0.0,78,0.00,,,0.04,Wunderground v.1.15,2013-04-29 22:42:00,
2013-04-29 19:12:00,57.2,49.0,29.97,ESE,109,1.0,2.0,74,0.00,,,0.04,Wunderground v.1.15,2013-04-29 23:12:00,
2013-04-29 19:42:00,56.9,48.7,29.98,ENE,71,0.0,0.0,74,0.00,,,0.04,Wunderground v.1.15,2013-04-29 23:42:00,
2013-04-29 20:42:00,56.5,47.9,29.99,ENE,74,0.0,0.0,73,0.00,,,0.04,Wunderground v.1.15,2013-04-30 00:42:00,
2013-04-29 21:12:00,56.3,47.8,30.01,East,79,0.0,0.0,73,0.00,,,0.04,Wunderground v.1.15,2013-04-30 01:12:00,
2013-04-29 21:42:00,56.1,47.6,30.01,East,79,0.0,0.0,73,0.00,,,0.04,Wunderground v.1.15,2013-04-30 01:42:00,
2013-04-29 22:12:00,55.8,48.0,30.01,East,80,0.0,0.0,75,0.00,,,0.04,Wunderground v.1.15,2013-04-30 02:12:00,
2013-04-29 22:42:00,55.5,48.1,30.01,East,80,0.0,0.0,76,0.00,,,0.04,Wunderground v.1.15,2013-04-30 02:42:00,
2013-04-29 23:12:00,55.2,48.5,30.00,East,80,0.0,0.0,78,0.00,,,0.04,Wunderground v.1.15,2013-04-30 03:12:00,
2013-04-29 23:42:00,55.0,48.3,30.00,East,80,0.0,0.0,78,0.00,,,0.04,Wunderground v.1.15,2013-04-30 03:42:00,